Year,Month,Day,Hour,Minute,Value (Times are PST for temperature in C)
2018,07,19,00,00,12.70
2018,07,19,00,01,12.70
2018,07,19,00,02,12.70
2018,07,19,00,03,12.70
2018,07,19,00,04,12.70
2018,07,19,00,05,12.70
2018,07,19,00,06,12.70
2018,07,19,00,07,12.70
2018,07,19,00,08,12.70
2018,07,19,00,09,12.70
2018,07,19,00,10,12.70
2018,07,19,00,11,12.70
2018,07,19,00,12,12.70
2018,07,19,00,13,12.60
2018,07,19,00,14,12.60
2018,07,19,00,15,12.60
2018,07,19,00,16,12.60
2018,07,19,00,17,12.60
2018,07,19,00,18,12.60
2018,07,19,00,19,12.60
2018,07,19,00,20,12.50
2018,07,19,00,21,12.50
2018,07,19,00,22,12.50
2018,07,19,00,23,12.50
2018,07,19,00,24,12.50
2018,07,19,00,25,12.50
2018,07,19,00,26,12.40
2018,07,19,00,27,12.40
2018,07,19,00,28,12.40
2018,07,19,00,29,12.40
2018,07,19,00,30,12.40
2018,07,19,00,31,12.30
2018,07,19,00,32,12.30
2018,07,19,00,33,12.30
2018,07,19,00,34,12.30
2018,07,19,00,35,12.30
2018,07,19,00,36,12.20
2018,07,19,00,37,12.20
2018,07,19,00,38,12.20
2018,07,19,00,39,12.20
2018,07,19,00,40,12.20
2018,07,19,00,41,12.20
2018,07,19,00,42,12.10
2018,07,19,00,43,12.10
2018,07,19,00,44,12.10
2018,07,19,00,45,12.10
2018,07,19,00,46,12.10
2018,07,19,00,47,12.00
2018,07,19,00,48,12.00
2018,07,19,00,49,12.00
2018,07,19,00,50,12.00
2018,07,19,00,51,11.90
2018,07,19,00,52,11.90
2018,07,19,00,53,11.90
2018,07,19,00,54,11.90
2018,07,19,00,55,11.90
2018,07,19,00,56,11.90
2018,07,19,00,57,11.90
2018,07,19,00,58,11.80
2018,07,19,00,59,11.80
2018,07,19,01,00,11.80
2018,07,19,01,01,11.80
2018,07,19,01,02,11.80
2018,07,19,01,03,11.70
2018,07,19,01,04,11.70
2018,07,19,01,05,11.70
2018,07,19,01,06,11.70
2018,07,19,01,07,11.70
2018,07,19,01,08,11.70
2018,07,19,01,09,11.70
2018,07,19,01,10,11.70
2018,07,19,01,11,11.70
2018,07,19,01,12,11.70
2018,07,19,01,13,11.70
2018,07,19,01,14,11.70
2018,07,19,01,15,11.60
2018,07,19,01,16,11.60
2018,07,19,01,17,11.60
2018,07,19,01,18,11.60
2018,07,19,01,19,11.60
2018,07,19,01,20,11.60
2018,07,19,01,21,11.60
2018,07,19,01,22,11.60
2018,07,19,01,23,11.50
2018,07,19,01,24,11.50
2018,07,19,01,25,11.50
2018,07,19,01,26,11.50
2018,07,19,01,27,11.50
2018,07,19,01,28,11.50
2018,07,19,01,29,11.50
2018,07,19,01,30,11.50
2018,07,19,01,31,11.50
2018,07,19,01,32,11.40
2018,07,19,01,33,11.40
2018,07,19,01,34,11.40
2018,07,19,01,35,11.40
2018,07,19,01,36,11.40
2018,07,19,01,37,11.40
2018,07,19,01,38,11.40
2018,07,19,01,39,11.40
2018,07,19,01,40,11.30
2018,07,19,01,41,11.30
2018,07,19,01,42,11.30
2018,07,19,01,43,11.30
2018,07,19,01,44,11.30
2018,07,19,01,45,11.30
2018,07,19,01,46,11.30
2018,07,19,01,47,11.20
2018,07,19,01,48,11.20
2018,07,19,01,49,11.20
2018,07,19,01,50,11.20
2018,07,19,01,51,11.20
2018,07,19,01,52,11.20
2018,07,19,01,53,11.20
2018,07,19,01,54,11.10
2018,07,19,01,55,11.10
2018,07,19,01,56,11.10
2018,07,19,01,57,11.10
2018,07,19,01,58,11.10
2018,07,19,01,59,11.10
2018,07,19,02,00,11.00
2018,07,19,02,01,11.00
2018,07,19,02,02,11.00
2018,07,19,02,03,11.00
2018,07,19,02,04,10.90
2018,07,19,02,05,10.90
2018,07,19,02,06,10.90
2018,07,19,02,07,10.90
2018,07,19,02,08,10.90
2018,07,19,02,09,10.90
2018,07,19,02,10,10.90
2018,07,19,02,11,10.80
2018,07,19,02,12,10.80
2018,07,19,02,13,10.80
2018,07,19,02,14,10.80
2018,07,19,02,15,10.90
2018,07,19,02,16,10.90
2018,07,19,02,17,10.90
2018,07,19,02,18,10.90
2018,07,19,02,19,10.90
2018,07,19,02,20,10.90
2018,07,19,02,21,10.90
2018,07,19,02,22,10.90
2018,07,19,02,23,10.90
2018,07,19,02,24,10.90
2018,07,19,02,25,10.90
2018,07,19,02,26,10.90
2018,07,19,02,27,10.90
2018,07,19,02,28,10.90
2018,07,19,02,29,10.90
2018,07,19,02,30,10.90
2018,07,19,02,31,10.90
2018,07,19,02,32,10.90
2018,07,19,02,33,10.90
2018,07,19,02,34,10.80
2018,07,19,02,35,10.80
2018,07,19,02,36,10.80
2018,07,19,02,37,10.80
2018,07,19,02,38,10.80
2018,07,19,02,39,10.80
2018,07,19,02,40,10.70
2018,07,19,02,41,10.70
2018,07,19,02,42,10.70
2018,07,19,02,43,10.70
2018,07,19,02,44,10.70
2018,07,19,02,45,10.70
2018,07,19,02,46,10.70
2018,07,19,02,47,10.70
2018,07,19,02,48,10.70
2018,07,19,02,49,10.60
2018,07,19,02,50,10.60
2018,07,19,02,51,10.60
2018,07,19,02,52,10.60
2018,07,19,02,53,10.60
2018,07,19,02,54,10.70
2018,07,19,02,55,10.70
2018,07,19,02,56,10.70
2018,07,19,02,57,10.80
2018,07,19,02,58,10.80
2018,07,19,02,59,10.80
2018,07,19,03,00,10.80
2018,07,19,03,01,10.80
2018,07,19,03,02,10.80
2018,07,19,03,03,10.80
2018,07,19,03,04,10.80
2018,07,19,03,05,10.70
2018,07,19,03,06,10.70
2018,07,19,03,07,10.70
2018,07,19,03,08,10.70
2018,07,19,03,09,10.70
2018,07,19,03,10,10.60
2018,07,19,03,11,10.60
2018,07,19,03,12,10.60
2018,07,19,03,13,10.60
2018,07,19,03,14,10.60
2018,07,19,03,15,10.60
2018,07,19,03,16,10.60
2018,07,19,03,17,10.50
2018,07,19,03,18,10.50
2018,07,19,03,19,10.50
2018,07,19,03,20,10.40
2018,07,19,03,21,10.40
2018,07,19,03,22,10.40
2018,07,19,03,23,10.40
2018,07,19,03,24,10.50
2018,07,19,03,25,10.50
2018,07,19,03,26,10.50
2018,07,19,03,27,10.50
2018,07,19,03,28,10.50
2018,07,19,03,29,10.50
2018,07,19,03,30,10.50
2018,07,19,03,31,10.50
2018,07,19,03,32,10.40
2018,07,19,03,33,10.40
2018,07,19,03,34,10.40
2018,07,19,03,35,10.40
2018,07,19,03,36,10.40
2018,07,19,03,37,10.30
2018,07,19,03,38,10.30
2018,07,19,03,39,10.30
2018,07,19,03,40,10.30
2018,07,19,03,41,10.30
2018,07,19,03,42,10.20
2018,07,19,03,43,10.20
2018,07,19,03,44,10.20
2018,07,19,03,45,10.20
2018,07,19,03,46,10.10
2018,07,19,03,47,10.10
2018,07,19,03,48,10.10
2018,07,19,03,49,10.10
2018,07,19,03,50,10.10
2018,07,19,03,51,10.10
2018,07,19,03,52,10.10
2018,07,19,03,53,10.10
2018,07,19,03,54,10.10
2018,07,19,03,55,10.10
2018,07,19,03,56,10.10
2018,07,19,03,57,10.10
2018,07,19,03,58,10.10
2018,07,19,03,59,10.20
2018,07,19,04,00,10.20
2018,07,19,04,01,10.20
2018,07,19,04,02,10.20
2018,07,19,04,03,10.20
2018,07,19,04,04,10.20
2018,07,19,04,05,10.20
2018,07,19,04,06,10.20
2018,07,19,04,07,10.20
2018,07,19,04,08,10.20
2018,07,19,04,09,10.20
2018,07,19,04,10,10.20
2018,07,19,04,11,10.20
2018,07,19,04,12,10.20
2018,07,19,04,13,10.20
2018,07,19,04,14,10.20
2018,07,19,04,15,10.20
2018,07,19,04,16,10.20
2018,07,19,04,17,10.20
2018,07,19,04,18,10.20
2018,07,19,04,19,10.20
2018,07,19,04,20,10.20
2018,07,19,04,21,10.20
2018,07,19,04,22,10.10
2018,07,19,04,23,10.10
2018,07,19,04,24,10.10
2018,07,19,04,25,10.10
2018,07,19,04,26,10.10
2018,07,19,04,27,10.00
2018,07,19,04,28,10.00
2018,07,19,04,29,10.00
2018,07,19,04,30,10.00
2018,07,19,04,31,10.00
2018,07,19,04,32,10.00
2018,07,19,04,33,10.00
2018,07,19,04,34,10.00
2018,07,19,04,35,10.00
2018,07,19,04,36,10.00
2018,07,19,04,37,10.00
2018,07,19,04,38,10.00
2018,07,19,04,39,10.00
2018,07,19,04,40,10.00
2018,07,19,04,41,9.90
2018,07,19,04,42,9.90
2018,07,19,04,43,9.90
2018,07,19,04,44,9.90
2018,07,19,04,45,9.90
2018,07,19,04,46,9.90
2018,07,19,04,47,9.90
2018,07,19,04,48,9.90
2018,07,19,04,49,9.90
2018,07,19,04,50,9.90
2018,07,19,04,51,9.90
2018,07,19,04,52,9.90
2018,07,19,04,53,9.90
2018,07,19,04,54,9.90
2018,07,19,04,55,9.90
2018,07,19,04,56,9.90
2018,07,19,04,57,9.80
2018,07,19,04,58,9.80
2018,07,19,04,59,9.80
2018,07,19,05,00,9.80
2018,07,19,05,01,9.80
2018,07,19,05,02,9.80
2018,07,19,05,03,9.80
2018,07,19,05,04,9.70
2018,07,19,05,05,9.70
2018,07,19,05,06,9.70
2018,07,19,05,07,9.70
2018,07,19,05,08,9.70
2018,07,19,05,09,9.70
2018,07,19,05,10,9.70
2018,07,19,05,11,9.70
2018,07,19,05,12,9.70
2018,07,19,05,13,9.70
2018,07,19,05,14,9.70
2018,07,19,05,15,9.70
2018,07,19,05,16,9.70
2018,07,19,05,17,9.70
2018,07,19,05,18,9.70
2018,07,19,05,19,9.70
2018,07,19,05,20,9.70
2018,07,19,05,21,9.70
2018,07,19,05,22,9.70
2018,07,19,05,23,9.70
2018,07,19,05,24,9.70
2018,07,19,05,25,9.70
2018,07,19,05,26,9.70
2018,07,19,05,27,9.80
2018,07,19,05,28,9.80
2018,07,19,05,29,9.80
2018,07,19,05,30,9.80
2018,07,19,05,31,9.80
2018,07,19,05,32,9.80
2018,07,19,05,33,9.80
2018,07,19,05,34,9.80
2018,07,19,05,35,9.80
2018,07,19,05,36,9.80
2018,07,19,05,37,9.80
2018,07,19,05,38,9.80
2018,07,19,05,39,9.80
2018,07,19,05,40,9.80
2018,07,19,05,41,9.80
2018,07,19,05,42,9.80
2018,07,19,05,43,9.80
2018,07,19,05,44,9.80
2018,07,19,05,45,9.80
2018,07,19,05,46,9.80
2018,07,19,05,47,9.80
2018,07,19,05,48,9.80
2018,07,19,05,49,9.80
2018,07,19,05,50,9.80
2018,07,19,05,51,9.80
2018,07,19,05,52,9.80
2018,07,19,05,53,9.80
2018,07,19,05,54,9.80
2018,07,19,05,55,9.80
2018,07,19,05,56,9.80
2018,07,19,05,57,9.80
2018,07,19,05,58,9.80
2018,07,19,05,59,9.70
2018,07,19,06,00,9.70
2018,07,19,06,01,9.70
2018,07,19,06,02,9.70
2018,07,19,06,03,9.70
2018,07,19,06,04,9.70
2018,07,19,06,05,9.70
2018,07,19,06,06,9.70
2018,07,19,06,07,9.70
2018,07,19,06,08,9.80
2018,07,19,06,09,9.80
2018,07,19,06,10,9.80
2018,07,19,06,11,9.80
2018,07,19,06,12,9.80
2018,07,19,06,13,9.80
2018,07,19,06,14,9.80
2018,07,19,06,15,9.80
2018,07,19,06,16,9.80
2018,07,19,06,17,9.80
2018,07,19,06,18,9.80
2018,07,19,06,19,9.90
2018,07,19,06,20,9.90
2018,07,19,06,21,9.90
2018,07,19,06,22,9.90
2018,07,19,06,23,9.90
2018,07,19,06,24,10.00
2018,07,19,06,25,10.00
2018,07,19,06,26,10.00
2018,07,19,06,27,10.00
2018,07,19,06,28,9.90
2018,07,19,06,29,9.90
2018,07,19,06,30,9.90
2018,07,19,06,31,9.90
2018,07,19,06,32,9.90
2018,07,19,06,33,9.90
2018,07,19,06,34,9.90
2018,07,19,06,35,9.90
2018,07,19,06,36,9.90
2018,07,19,06,37,9.90
2018,07,19,06,38,9.90
2018,07,19,06,39,9.90
2018,07,19,06,40,9.90
2018,07,19,06,41,10.00
2018,07,19,06,42,10.00
2018,07,19,06,43,10.00
2018,07,19,06,44,10.00
2018,07,19,06,45,10.10
2018,07,19,06,46,10.10
2018,07,19,06,47,10.10
2018,07,19,06,48,10.10
2018,07,19,06,49,10.10
2018,07,19,06,50,10.10
2018,07,19,06,51,10.10
2018,07,19,06,52,10.10
2018,07,19,06,53,10.10
2018,07,19,06,54,10.10
2018,07,19,06,55,10.10
2018,07,19,06,56,10.20
2018,07,19,06,57,10.20
2018,07,19,06,58,10.20
2018,07,19,06,59,10.20
2018,07,19,07,00,10.20
2018,07,19,07,01,10.20
2018,07,19,07,02,10.20
2018,07,19,07,03,10.20
2018,07,19,07,04,10.20
2018,07,19,07,05,10.20
2018,07,19,07,06,10.20
2018,07,19,07,07,10.30
2018,07,19,07,08,10.30
2018,07,19,07,09,10.30
2018,07,19,07,10,10.30
2018,07,19,07,11,10.30
2018,07,19,07,12,10.30
2018,07,19,07,13,10.30
2018,07,19,07,14,10.30
2018,07,19,07,15,10.30
2018,07,19,07,16,10.30
2018,07,19,07,17,10.30
2018,07,19,07,18,10.30
2018,07,19,07,19,10.30
2018,07,19,07,20,10.30
2018,07,19,07,21,10.30
2018,07,19,07,22,10.40
2018,07,19,07,23,10.40
2018,07,19,07,24,10.40
2018,07,19,07,25,10.50
2018,07,19,07,26,10.50
2018,07,19,07,27,10.60
2018,07,19,07,28,10.60
2018,07,19,07,29,10.60
2018,07,19,07,30,10.60
2018,07,19,07,31,10.60
2018,07,19,07,32,10.60
2018,07,19,07,33,10.60
2018,07,19,07,34,10.60
2018,07,19,07,35,10.60
2018,07,19,07,36,10.60
2018,07,19,07,37,10.60
2018,07,19,07,38,10.60
2018,07,19,07,39,10.60
2018,07,19,07,40,10.70
2018,07,19,07,41,10.70
2018,07,19,07,42,10.70
2018,07,19,07,43,10.80
2018,07,19,07,44,10.80
2018,07,19,07,45,10.90
2018,07,19,07,46,10.90
2018,07,19,07,47,11.00
2018,07,19,07,48,11.10
2018,07,19,07,49,11.20
2018,07,19,07,50,11.30
2018,07,19,07,51,11.40
2018,07,19,07,52,11.50
2018,07,19,07,53,11.50
2018,07,19,07,54,11.60
2018,07,19,07,55,11.70
2018,07,19,07,56,11.70
2018,07,19,07,57,11.80
2018,07,19,07,58,11.90
2018,07,19,07,59,12.00
2018,07,19,08,00,12.10
2018,07,19,08,01,12.20
2018,07,19,08,02,12.20
2018,07,19,08,03,12.30
2018,07,19,08,04,12.30
2018,07,19,08,05,12.40
2018,07,19,08,06,12.50
2018,07,19,08,07,12.50
2018,07,19,08,08,12.60
2018,07,19,08,09,12.70
2018,07,19,08,10,12.80
2018,07,19,08,11,12.90
2018,07,19,08,12,13.10
2018,07,19,08,13,13.20
2018,07,19,08,14,13.30
2018,07,19,08,15,13.40
2018,07,19,08,16,13.50
2018,07,19,08,17,13.70
2018,07,19,08,18,13.70
2018,07,19,08,19,13.90
2018,07,19,08,20,14.00
2018,07,19,08,21,14.10
2018,07,19,08,22,14.30
2018,07,19,08,23,14.40
2018,07,19,08,24,14.50
2018,07,19,08,25,14.60
2018,07,19,08,26,14.70
2018,07,19,08,27,14.80
2018,07,19,08,28,14.80
2018,07,19,08,29,14.90
2018,07,19,08,30,14.90
2018,07,19,08,31,15.00
2018,07,19,08,32,15.10
2018,07,19,08,33,15.30
2018,07,19,08,34,15.30
2018,07,19,08,35,15.40
2018,07,19,08,36,15.40
2018,07,19,08,37,15.50
2018,07,19,08,38,15.60
2018,07,19,08,39,15.70
2018,07,19,08,40,15.80
2018,07,19,08,41,15.90
2018,07,19,08,42,16.00
2018,07,19,08,43,16.00
2018,07,19,08,44,16.10
2018,07,19,08,45,16.10
2018,07,19,08,46,16.20
2018,07,19,08,47,16.20
2018,07,19,08,48,16.20
2018,07,19,08,49,16.20
2018,07,19,08,50,16.20
2018,07,19,08,51,16.20
2018,07,19,08,52,16.20
2018,07,19,08,53,16.20
2018,07,19,08,54,16.10
2018,07,19,08,55,16.00
2018,07,19,08,56,16.00
2018,07,19,08,57,16.00
2018,07,19,08,58,16.00
2018,07,19,08,59,16.00
2018,07,19,09,00,16.00
2018,07,19,09,01,16.00
2018,07,19,09,02,16.10
2018,07,19,09,03,16.10
2018,07,19,09,04,16.10
2018,07,19,09,05,16.20
2018,07,19,09,06,16.20
2018,07,19,09,07,16.30
2018,07,19,09,08,16.40
2018,07,19,09,09,16.50
2018,07,19,09,10,16.50
2018,07,19,09,11,16.50
2018,07,19,09,12,16.50
2018,07,19,09,13,16.50
2018,07,19,09,14,16.50
2018,07,19,09,15,16.50
2018,07,19,09,16,16.50
2018,07,19,09,17,16.50
2018,07,19,09,18,16.50
2018,07,19,09,19,16.50
2018,07,19,09,20,16.60
2018,07,19,09,21,16.60
2018,07,19,09,22,16.60
2018,07,19,09,23,16.60
2018,07,19,09,24,16.60
2018,07,19,09,25,16.60
2018,07,19,09,26,16.70
2018,07,19,09,27,16.70
2018,07,19,09,28,16.70
2018,07,19,09,29,16.80
2018,07,19,09,30,16.90
2018,07,19,09,31,16.90
2018,07,19,09,32,16.90
2018,07,19,09,33,17.00
2018,07,19,09,34,17.00
2018,07,19,09,35,17.00
2018,07,19,09,36,17.00
2018,07,19,09,37,17.10
2018,07,19,09,38,17.10
2018,07,19,09,39,17.10
2018,07,19,09,40,17.20
2018,07,19,09,41,17.20
2018,07,19,09,42,17.20
2018,07,19,09,43,17.20
2018,07,19,09,44,17.30
2018,07,19,09,45,17.30
2018,07,19,09,46,17.30
2018,07,19,09,47,17.40
2018,07,19,09,48,17.40
2018,07,19,09,49,17.50
2018,07,19,09,50,17.60
2018,07,19,09,51,17.70
2018,07,19,09,52,17.80
2018,07,19,09,53,17.80
2018,07,19,09,54,17.80
2018,07,19,09,55,17.70
2018,07,19,09,56,17.70
2018,07,19,09,57,17.60
2018,07,19,09,58,17.60
2018,07,19,09,59,17.60
2018,07,19,10,00,17.60
2018,07,19,10,01,17.60
2018,07,19,10,02,17.70
2018,07,19,10,03,17.70
2018,07,19,10,04,17.80
2018,07,19,10,05,17.80
2018,07,19,10,06,17.80
2018,07,19,10,07,17.80
2018,07,19,10,08,17.80
2018,07,19,10,09,17.80
2018,07,19,10,10,17.80
2018,07,19,10,11,17.90
2018,07,19,10,12,17.90
2018,07,19,10,13,17.90
2018,07,19,10,14,17.90
2018,07,19,10,15,18.00
2018,07,19,10,16,18.00
2018,07,19,10,17,17.90
2018,07,19,10,18,17.90
2018,07,19,10,19,17.80
2018,07,19,10,20,17.80
2018,07,19,10,21,17.80
2018,07,19,10,22,17.80
2018,07,19,10,23,17.80
2018,07,19,10,24,17.90
2018,07,19,10,25,17.90
2018,07,19,10,26,18.00
2018,07,19,10,27,18.00
2018,07,19,10,28,18.00
2018,07,19,10,29,18.10
2018,07,19,10,30,18.10
2018,07,19,10,31,18.10
2018,07,19,10,32,18.20
2018,07,19,10,33,18.20
2018,07,19,10,34,18.20
2018,07,19,10,35,18.20
2018,07,19,10,36,18.20
2018,07,19,10,37,18.20
2018,07,19,10,38,18.20
2018,07,19,10,39,18.20
2018,07,19,10,40,18.20
2018,07,19,10,41,18.30
2018,07,19,10,42,18.30
2018,07,19,10,43,18.40
2018,07,19,10,44,18.50
2018,07,19,10,45,18.60
2018,07,19,10,46,18.70
2018,07,19,10,47,18.70
2018,07,19,10,48,18.70
2018,07,19,10,49,18.70
2018,07,19,10,50,18.60
2018,07,19,10,51,18.60
2018,07,19,10,52,18.60
2018,07,19,10,53,18.60
2018,07,19,10,54,18.60
2018,07,19,10,55,18.60
2018,07,19,10,56,18.70
2018,07,19,10,57,18.80
2018,07,19,10,58,18.90
2018,07,19,10,59,18.90
2018,07,19,11,00,18.90
2018,07,19,11,01,18.90
2018,07,19,11,02,18.90
2018,07,19,11,03,18.90
2018,07,19,11,04,18.90
2018,07,19,11,05,18.90
2018,07,19,11,06,19.00
2018,07,19,11,07,19.00
2018,07,19,11,08,19.00
2018,07,19,11,09,19.00
2018,07,19,11,10,19.00
2018,07,19,11,11,19.00
2018,07,19,11,12,19.00
2018,07,19,11,13,18.90
2018,07,19,11,14,18.90
2018,07,19,11,15,18.80
2018,07,19,11,16,18.80
2018,07,19,11,17,18.90
2018,07,19,11,18,18.90
2018,07,19,11,19,18.90
2018,07,19,11,20,18.90
2018,07,19,11,21,18.90
2018,07,19,11,22,19.00
2018,07,19,11,23,19.10
2018,07,19,11,24,19.10
2018,07,19,11,25,19.10
2018,07,19,11,26,19.10
2018,07,19,11,27,19.10
2018,07,19,11,28,19.10
2018,07,19,11,29,19.20
2018,07,19,11,30,19.20
2018,07,19,11,31,19.30
2018,07,19,11,32,19.30
2018,07,19,11,33,19.40
2018,07,19,11,34,19.40
2018,07,19,11,35,19.40
2018,07,19,11,36,19.40
2018,07,19,11,37,19.40
2018,07,19,11,38,19.30
2018,07,19,11,39,19.30
2018,07,19,11,40,19.30
2018,07,19,11,41,19.30
2018,07,19,11,42,19.30
2018,07,19,11,43,19.20
2018,07,19,11,44,19.30
2018,07,19,11,45,19.30
2018,07,19,11,46,19.40
2018,07,19,11,47,19.40
2018,07,19,11,48,19.50
2018,07,19,11,49,19.50
2018,07,19,11,50,19.50
2018,07,19,11,51,19.50
2018,07,19,11,52,19.50
2018,07,19,11,53,19.40
2018,07,19,11,54,19.40
2018,07,19,11,55,19.40
2018,07,19,11,56,19.30
2018,07,19,11,57,19.30
2018,07,19,11,58,19.40
2018,07,19,11,59,19.40
2018,07,19,12,00,19.50
2018,07,19,12,01,19.50
2018,07,19,12,02,19.60
2018,07,19,12,03,19.60
2018,07,19,12,04,19.50
2018,07,19,12,05,19.50
2018,07,19,12,06,19.50
2018,07,19,12,07,19.40
2018,07,19,12,08,19.40
2018,07,19,12,09,19.30
2018,07,19,12,10,19.30
2018,07,19,12,11,19.30
2018,07,19,12,12,19.30
2018,07,19,12,13,19.30
2018,07,19,12,14,19.30
2018,07,19,12,15,19.30
2018,07,19,12,16,19.40
2018,07,19,12,17,19.40
2018,07,19,12,18,19.40
2018,07,19,12,19,19.50
2018,07,19,12,20,19.50
2018,07,19,12,21,19.60
2018,07,19,12,22,19.60
2018,07,19,12,23,19.70
2018,07,19,12,24,19.70
2018,07,19,12,25,19.70
2018,07,19,12,26,19.70
2018,07,19,12,27,19.70
2018,07,19,12,28,19.70
2018,07,19,12,29,19.70
2018,07,19,12,30,19.80
2018,07,19,12,31,19.80
2018,07,19,12,32,19.90
2018,07,19,12,33,19.90
2018,07,19,12,34,19.90
2018,07,19,12,35,19.90
2018,07,19,12,36,19.90
2018,07,19,12,37,20.00
2018,07,19,12,38,20.00
2018,07,19,12,39,20.10
2018,07,19,12,40,20.20
2018,07,19,12,41,20.30
2018,07,19,12,42,20.40
2018,07,19,12,43,20.40
2018,07,19,12,44,20.50
2018,07,19,12,45,20.50
2018,07,19,12,46,20.40
2018,07,19,12,47,20.40
2018,07,19,12,48,20.30
2018,07,19,12,49,20.20
2018,07,19,12,50,20.20
2018,07,19,12,51,20.20
2018,07,19,12,52,20.10
2018,07,19,12,53,20.10
2018,07,19,12,54,20.20
2018,07,19,12,55,20.20
2018,07,19,12,56,20.30
2018,07,19,12,57,20.20
2018,07,19,12,58,20.20
2018,07,19,12,59,20.20
2018,07,19,13,00,20.20
2018,07,19,13,01,20.20
2018,07,19,13,02,20.20
2018,07,19,13,03,20.20
2018,07,19,13,04,20.30
2018,07,19,13,05,20.30
2018,07,19,13,06,20.50
2018,07,19,13,07,20.50
2018,07,19,13,08,20.60
2018,07,19,13,09,20.60
2018,07,19,13,10,20.70
2018,07,19,13,11,20.70
2018,07,19,13,12,20.70
2018,07,19,13,13,20.80
2018,07,19,13,14,20.80
2018,07,19,13,15,20.80
2018,07,19,13,16,20.80
2018,07,19,13,17,20.90
2018,07,19,13,18,20.90
2018,07,19,13,19,20.90
2018,07,19,13,20,21.00
2018,07,19,13,21,21.00
2018,07,19,13,22,21.00
2018,07,19,13,23,21.10
2018,07,19,13,24,21.10
2018,07,19,13,25,21.10
2018,07,19,13,26,21.10
2018,07,19,13,27,21.10
2018,07,19,13,28,21.20
2018,07,19,13,29,21.20
2018,07,19,13,30,21.20
2018,07,19,13,31,21.20
2018,07,19,13,32,21.20
2018,07,19,13,33,21.10
2018,07,19,13,34,21.00
2018,07,19,13,35,20.90
2018,07,19,13,36,20.90
2018,07,19,13,37,20.90
2018,07,19,13,38,21.00
2018,07,19,13,39,21.00
2018,07,19,13,40,21.00
2018,07,19,13,41,21.00
2018,07,19,13,42,20.90
2018,07,19,13,43,20.90
2018,07,19,13,44,20.80
2018,07,19,13,45,20.80
2018,07,19,13,46,20.80
2018,07,19,13,47,20.80
2018,07,19,13,48,20.80
2018,07,19,13,49,20.80
2018,07,19,13,50,20.80
2018,07,19,13,51,20.70
2018,07,19,13,52,20.70
2018,07,19,13,53,20.70
2018,07,19,13,54,20.70
2018,07,19,13,55,20.70
2018,07,19,13,56,20.70
2018,07,19,13,57,20.70
2018,07,19,13,58,20.80
2018,07,19,13,59,20.80
2018,07,19,14,00,20.80
2018,07,19,14,01,20.80
2018,07,19,14,02,20.80
2018,07,19,14,03,20.80
2018,07,19,14,04,20.80
2018,07,19,14,05,20.80
2018,07,19,14,06,20.80
2018,07,19,14,07,20.70
2018,07,19,14,08,20.70
2018,07,19,14,09,20.70
2018,07,19,14,10,20.70
2018,07,19,14,11,20.70
2018,07,19,14,12,20.70
2018,07,19,14,13,20.60
2018,07,19,14,14,20.60
2018,07,19,14,15,20.60
2018,07,19,14,16,20.60
2018,07,19,14,17,20.60
2018,07,19,14,18,20.60
2018,07,19,14,19,20.50
2018,07,19,14,20,20.40
2018,07,19,14,21,20.30
2018,07,19,14,22,20.20
2018,07,19,14,23,20.10
2018,07,19,14,24,20.10
2018,07,19,14,25,20.10
2018,07,19,14,26,20.20
2018,07,19,14,27,20.20
2018,07,19,14,28,20.30
2018,07,19,14,29,20.40
2018,07,19,14,30,20.40
2018,07,19,14,31,20.40
2018,07,19,14,32,20.40
2018,07,19,14,33,20.40
2018,07,19,14,34,20.30
2018,07,19,14,35,20.30
2018,07,19,14,36,20.10
2018,07,19,14,37,20.10
2018,07,19,14,38,20.10
2018,07,19,14,39,20.20
2018,07,19,14,40,20.30
2018,07,19,14,41,20.30
2018,07,19,14,42,20.30
2018,07,19,14,43,20.20
2018,07,19,14,44,20.20
2018,07,19,14,45,20.30
2018,07,19,14,46,20.30
2018,07,19,14,47,20.30
2018,07,19,14,48,20.30
2018,07,19,14,49,20.30
2018,07,19,14,50,20.40
2018,07,19,14,51,20.40
2018,07,19,14,52,20.40
2018,07,19,14,53,20.40
2018,07,19,14,54,20.30
2018,07,19,14,55,20.30
2018,07,19,14,56,20.20
2018,07,19,14,57,20.20
2018,07,19,14,58,20.10
2018,07,19,14,59,20.10
2018,07,19,15,00,20.10
2018,07,19,15,01,20.20
2018,07,19,15,02,20.20
2018,07,19,15,03,20.10
2018,07,19,15,04,20.10
2018,07,19,15,05,20.10
2018,07,19,15,06,20.20
2018,07,19,15,07,20.20
2018,07,19,15,08,20.20
2018,07,19,15,09,20.20
2018,07,19,15,10,20.10
2018,07,19,15,11,20.10
2018,07,19,15,12,20.00
2018,07,19,15,13,20.00
2018,07,19,15,14,20.00
2018,07,19,15,15,20.00
2018,07,19,15,16,20.00
2018,07,19,15,17,20.00
2018,07,19,15,18,20.00
2018,07,19,15,19,19.90
2018,07,19,15,20,19.90
2018,07,19,15,21,19.80
2018,07,19,15,22,19.70
2018,07,19,15,23,19.70
2018,07,19,15,24,19.70
2018,07,19,15,25,19.70
2018,07,19,15,26,19.80
2018,07,19,15,27,19.80
2018,07,19,15,28,19.80
2018,07,19,15,29,19.80
2018,07,19,15,30,19.90
2018,07,19,15,31,20.00
2018,07,19,15,32,19.90
2018,07,19,15,33,19.90
2018,07,19,15,34,20.00
2018,07,19,15,35,19.90
2018,07,19,15,36,19.80
2018,07,19,15,37,19.70
2018,07,19,15,38,19.60
2018,07,19,15,39,19.50
2018,07,19,15,40,19.40
2018,07,19,15,41,19.30
2018,07,19,15,42,19.30
2018,07,19,15,43,19.40
2018,07,19,15,44,19.50
2018,07,19,15,45,19.50
2018,07,19,15,46,19.50
2018,07,19,15,47,19.40
2018,07,19,15,48,19.40
2018,07,19,15,49,19.40
2018,07,19,15,50,19.30
2018,07,19,15,51,19.30
2018,07,19,15,52,19.40
2018,07,19,15,53,19.40
2018,07,19,15,54,19.50
2018,07,19,15,55,19.50
2018,07,19,15,56,19.50
2018,07,19,15,57,19.50
2018,07,19,15,58,19.60
2018,07,19,15,59,19.60
2018,07,19,16,00,19.60
2018,07,19,16,01,19.60
2018,07,19,16,02,19.70
2018,07,19,16,03,19.80
2018,07,19,16,04,19.80
2018,07,19,16,05,19.80
2018,07,19,16,06,19.80
2018,07,19,16,07,19.80
2018,07,19,16,08,19.70
2018,07,19,16,09,19.70
2018,07,19,16,10,19.70
2018,07,19,16,11,19.70
2018,07,19,16,12,19.70
2018,07,19,16,13,19.70
2018,07,19,16,14,19.80
2018,07,19,16,15,19.70
2018,07,19,16,16,19.80
2018,07,19,16,17,19.70
2018,07,19,16,18,19.70
2018,07,19,16,19,19.70
2018,07,19,16,20,19.70
2018,07,19,16,21,19.70
2018,07,19,16,22,19.70
2018,07,19,16,23,19.60
2018,07,19,16,24,19.50
2018,07,19,16,25,19.40
2018,07,19,16,26,19.40
2018,07,19,16,27,19.40
2018,07,19,16,28,19.30
2018,07,19,16,29,19.30
2018,07,19,16,30,19.40
2018,07,19,16,31,19.40
2018,07,19,16,32,19.50
2018,07,19,16,33,19.50
2018,07,19,16,34,19.50
2018,07,19,16,35,19.50
2018,07,19,16,36,19.40
2018,07,19,16,37,19.40
2018,07,19,16,38,19.40
2018,07,19,16,39,19.40
2018,07,19,16,40,19.40
2018,07,19,16,41,19.40
2018,07,19,16,42,19.40
2018,07,19,16,43,19.40
2018,07,19,16,44,19.40
2018,07,19,16,45,19.40
2018,07,19,16,46,19.40
2018,07,19,16,47,19.40
2018,07,19,16,48,19.40
2018,07,19,16,49,19.50
2018,07,19,16,50,19.50
2018,07,19,16,51,19.60
2018,07,19,16,52,19.60
2018,07,19,16,53,19.70
2018,07,19,16,54,19.70
2018,07,19,16,55,19.80
2018,07,19,16,56,19.80
2018,07,19,16,57,19.80
2018,07,19,16,58,19.80
2018,07,19,16,59,19.80
2018,07,19,17,00,19.80
2018,07,19,17,01,19.90
2018,07,19,17,02,19.90
2018,07,19,17,03,19.90
2018,07,19,17,04,19.90
2018,07,19,17,05,19.90
2018,07,19,17,06,20.00
2018,07,19,17,07,20.00
2018,07,19,17,08,20.10
2018,07,19,17,09,20.10
2018,07,19,17,10,20.10
2018,07,19,17,11,20.10
2018,07,19,17,12,20.10
2018,07,19,17,13,20.00
2018,07,19,17,14,20.00
2018,07,19,17,15,20.00
2018,07,19,17,16,20.10
2018,07,19,17,17,20.10
2018,07,19,17,18,20.10
2018,07,19,17,19,20.00
2018,07,19,17,20,20.00
2018,07,19,17,21,20.00
2018,07,19,17,22,20.00
2018,07,19,17,23,20.00
2018,07,19,17,24,20.00